Location: Geyikbay?r?
(36.8756°N, 30.4583°E)
Time: 17:14:24
(UTC+00:00)

USA 238 DEB - Pass Details

Date: 05 August 2024
Orbit: 915 x 1296 km, 63.4° (Epoch: 11 August)

Event Time Altitude Azimuth Distance (km) Brightness Sun altitude
Rises 20:33:50 0° 329° (NNW) 4,011 7.8 -32.4°
Reaches altitude 10° 20:36:30 10° 333° (NNW) 3,099 7.0 -32.6°
Maximum altitude 20:44:00 68° 56° (NE) 1,328 4.0 -33.2°
Enters shadow 20:44:11 68° 65° (ENE) 1,331 4.0 -33.3°
